Hourly Weather Roundup
Issued by NWS Central Illinois

Home | Current Version | Previous Version | Text Only | Print | Product List | Glossary On
Versions: 1 2 3 4 5 6 7 8 9 10 11 12 13 14 15 16 17 18 19 20 21 22 23 24 25 26 27 28 29 30 31 32 33 34 35 36 37 38 39 40 41 42 43 44 45 46 47 48 49 50
000
NZUS43 KILX 290710
HWRILX

AREA WEATHER ROUNDUP
NATIONAL WEATHER SERVICE, LINCOLN IL
200 AM CDT FRI MAY 29 2015


CITY           SKY/WX    TMP DP  RH WIND       PRES   REMARKS
BLOOMINGTON    MOCLDY    69  65  87 S10       30.05F
CHAMPAIGN      PTCLDY    72  64  76 S12       30.06F
DANVILLE       CLEAR     69  64  83 SE3       30.07S
DECATUR        PTCLDY    69  64  84 S5        30.06S
EFFINGHAM      CLEAR     67  63  85 E7        30.07F
FLORA          CLEAR     67  64  88 SE6       30.05F
GALESBURG      CLOUDY    67  63  86 CALM      30.01F
JACKSONVILLE   MOCLDY    71  66  82 S7        30.02F
LACON          CLOUDY    68  62  82 CALM      30.03R
LAWRENCEVILLE  CLEAR     68  64  87 SE5       30.08F
LITCHFIELD     PTCLDY    67  64  87 SE6       30.04F
$$


CITY           SKY/WX    TMP DP  RH WIND       PRES   REMARKS
LINCOLN        MOCLDY    70  65  83 S3        30.02F
MACOMB         CLOUDY    68  65  93 SE8       30.03F
MATTOON        NOT AVBL
MT CARMEL AP   CLEAR     70  64  83 CALM      30.08S
OLNEY-NOBLE AP CLEAR     68  64  88 SE6       30.06F
PARIS          CLEAR     70  65  83 S6        30.09F
PEORIA         CLOUDY    72  64  76 S7        30.03S
PONTIAC        MOCLDY    69  63  82 SE7       30.05F
RANTOUL        CLEAR     73  65  76 SE7       30.06F
ROBINSON       CLEAR     69  65  87 SE5       30.09S
SPRINGFIELD    MOCLDY    69  65  86 S6        30.04F
TAYLORVILLE    PTCLDY    64  64 100 CALM      30.05S
$$

...REGIONAL REPORTS...


CITY           SKY/WX    TMP DP  RH WIND       PRES   REMARKS
CHICAGO O`HARE MOCLDY    64  57  78 S9        30.04F
KANKAKEE       PTCLDY    71  63  77 S6        30.07F
MOLINE         CLOUDY    67  60  78 CALM      30.00F
MOUNT VERNON   CLEAR     68  61  77 SW3       30.06S
PITTSFIELD     MOCLDY    69  65  88 S6        30.02F
QUINCY         CLOUDY    68  64  87 SE6       30.00F
ROCKFORD       CLOUDY    66  56  70 S6        30.04S
$$


CITY           SKY/WX    TMP DP  RH WIND       PRES   REMARKS
BURLINGTON     CLOUDY    67  63  87 SE3       29.99F
CEDAR RAPIDS   CLOUDY    65  63  93 S7        29.98F
DES MOINES     PTCLDY    65  62  90 S7        29.95F
KIRKSVILLE     CLOUDY    65  64  97 SE3       29.99F
OTTUMWA        CLOUDY    64  63  96 SE7       29.97F
ST LOUIS       CLOUDY    74  64  71 S8        30.03F
$$


CITY           SKY/WX    TMP DP  RH WIND       PRES   REMARKS
TERRE HAUTE    CLEAR     69  64  84 SE5       30.09F
EVANSVILLE     CLEAR     71  65  81 CALM      30.08F
INDIANAPOLIS   PTCLDY    68  62  81 SE8       30.10S
LAFAYETTE      PTCLDY    66  62  87 SE5       30.09F
MADISON        CLOUDY    69  54  58 S8        30.02F
MILWAUKEE      MOCLDY    63  53  70 SE8       30.06F
$$




USA.gov is the U.S. government's official web portal to all federal, state and local government web resources and services.